GEFSMA_prec_meanprecacc_162.txt.gz
Total_Precipitation_Accumulation
0.41 0.36 0.33 0.34 0.35 0.34 0.31 0.27 0.24 0.23 0.22 0.20 0.18 0.17 0.18 0.19 0.16 0.14 0.13 0.12 0.12 0.12 0.17 0.23 0.29 0.33 0.35 0.38 0.38 0.40 0.39 0.38 0.37 0.37 0.36 0.35 0.33 0.30 0.28 0.27 0.27 0.26 0.27
0.57 0.51 0.44 0.39 0.38 0.38 0.39 0.36 0.33 0.32 0.28 0.26 0.22 0.20 0.19 0.20 0.21 0.20 0.18 0.16 0.13 0.12 0.13 0.18 0.27 0.36 0.42 0.47 0.49 0.49 0.45 0.40 0.38 0.39 0.36 0.36 0.37 0.39 0.39 0.34 0.32 0.31 0.30
0.64 0.62 0.59 0.54 0.48 0.47 0.46 0.46 0.45 0.45 0.39 0.34 0.29 0.27 0.25 0.25 0.26 0.26 0.25 0.23 0.19 0.16 0.15 0.18 0.25 0.36 0.44 0.51 0.58 0.61 0.59 0.51 0.45 0.40 0.38 0.37 0.36 0.38 0.41 0.43 0.41 0.38 0.35
0.72 0.70 0.65 0.55 0.49 0.55 0.56 0.52 0.48 0.47 0.41 0.34 0.29 0.28 0.27 0.27 0.28 0.30 0.33 0.32 0.29 0.24 0.20 0.18 0.20 0.28 0.38 0.50 0.62 0.75 0.82 0.74 0.61 0.53 0.48 0.44 0.40 0.38 0.39 0.41 0.44 0.43 0.40
0.81 0.80 0.74 0.69 0.63 0.55 0.56 0.57 0.52 0.46 0.42 0.39 0.34 0.29 0.26 0.24 0.24 0.25 0.26 0.28 0.31 0.30 0.27 0.25 0.24 0.25 0.32 0.44 0.59 0.77 0.93 0.93 0.82 0.70 0.62 0.57 0.53 0.47 0.44 0.43 0.42 0.42 0.43
0.92 0.87 0.84 0.83 0.85 0.77 0.65 0.59 0.55 0.51 0.45 0.46 0.48 0.43 0.37 0.32 0.29 0.27 0.26 0.26 0.26 0.27 0.27 0.23 0.23 0.23 0.26 0.32 0.44 0.60 0.76 0.91 0.97 0.91 0.80 0.71 0.66 0.62 0.61 0.59 0.56 0.54 0.52
1.13 1.06 0.96 0.97 0.96 0.89 0.79 0.73 0.70 0.65 0.60 0.59 0.60 0.52 0.44 0.42 0.39 0.34 0.33 0.34 0.32 0.31 0.30 0.27 0.25 0.23 0.22 0.24 0.29 0.39 0.51 0.68 0.85 0.95 0.97 0.94 0.86 0.80 0.76 0.76 0.75 0.70 0.67
1.22 1.17 1.12 1.09 1.06 1.05 1.03 0.98 0.94 0.89 0.82 0.82 0.83 0.79 0.63 0.48 0.38 0.33 0.35 0.36 0.36 0.36 0.34 0.31 0.28 0.27 0.24 0.22 0.22 0.25 0.32 0.45 0.64 0.83 0.94 0.98 0.98 0.97 0.97 0.98 0.97 0.93 0.87
1.38 1.28 1.23 1.24 1.19 1.13 1.09 1.07 1.06 1.04 0.98 0.94 0.94 1.00 0.86 0.60 0.41 0.32 0.29 0.30 0.33 0.36 0.37 0.39 0.40 0.38 0.33 0.30 0.27 0.25 0.25 0.29 0.43 0.64 0.85 0.97 1.01 1.04 1.11 1.19 1.27 1.27 1.17
1.54 1.45 1.38 1.35 1.32 1.27 1.16 1.13 1.11 1.06 1.04 0.99 0.95 0.89 0.82 0.67 0.62 0.47 0.32 0.30 0.32 0.33 0.36 0.40 0.44 0.47 0.48 0.46 0.44 0.41 0.34 0.30 0.36 0.51 0.74 0.97 1.13 1.21 1.27 1.30 1.36 1.41 1.39
1.62 1.52 1.46 1.44 1.37 1.31 1.27 1.27 1.23 1.18 1.12 1.06 1.01 0.95 0.93 0.80 0.68 0.65 0.49 0.34 0.35 0.36 0.38 0.42 0.46 0.48 0.50 0.50 0.47 0.48 0.49 0.44 0.46 0.55 0.72 0.95 1.16 1.35 1.48 1.53 1.54 1.56 1.54
1.72 1.60 1.50 1.44 1.38 1.33 1.32 1.32 1.35 1.30 1.24 1.18 1.14 1.08 1.07 1.01 0.86 0.82 0.73 0.51 0.44 0.39 0.38 0.40 0.42 0.45 0.48 0.50 0.49 0.54 0.52 0.53 0.57 0.67 0.83 1.00 1.12 1.27 1.46 1.62 1.68 1.67 1.65
1.53 1.50 1.49 1.44 1.39 1.33 1.30 1.32 1.35 1.32 1.27 1.22 1.15 1.12 1.11 1.07 0.99 0.97 0.93 0.73 0.58 0.47 0.44 0.44 0.43 0.44 0.46 0.48 0.51 0.60 0.58 0.61 0.65 0.73 0.87 1.02 1.08 1.13 1.25 1.46 1.68 1.81 1.90
1.45 1.46 1.45 1.45 1.46 1.44 1.38 1.36 1.36 1.34 1.32 1.23 1.12 1.06 1.02 0.98 0.98 1.00 1.00 0.99 0.91 0.70 0.57 0.50 0.45 0.45 0.48 0.53 0.62 0.72 0.68 0.80 0.82 0.86 0.96 1.06 1.09 1.07 1.10 1.18 1.35 1.54 1.68
1.32 1.34 1.33 1.34 1.35 1.37 1.35 1.35 1.32 1.29 1.29 1.25 1.19 1.11 0.99 0.89 0.88 0.90 0.94 1.01 1.12 1.02 0.77 0.58 0.56 0.58 0.63 0.68 0.78 0.78 0.74 0.90 0.96 0.97 1.02 1.06 1.07 1.04 1.02 1.03 1.09 1.17 1.25
1.15 1.19 1.18 1.18 1.19 1.20 1.23 1.26 1.22 1.18 1.17 1.13 1.12 1.12 1.07 0.98 0.94 0.95 1.00 1.06 1.15 1.21 1.05 0.73 0.63 0.66 0.75 0.83 0.94 0.88 0.83 0.96 0.94 0.94 0.97 0.96 0.92 0.89 0.88 0.89 0.92 0.99 1.05
0.99 1.00 1.01 1.02 1.02 1.04 1.08 1.12 1.08 1.05 1.08 1.07 1.06 1.08 1.10 1.07 1.08 1.06 1.10 1.17 1.23 1.31 1.31 1.01 0.82 0.78 0.82 0.83 0.85 0.81 0.78 0.80 0.79 0.88 0.85 0.81 0.78 0.76 0.75 0.77 0.79 0.83 0.87
0.87 0.89 0.91 0.91 0.88 0.86 0.90 0.94 0.97 0.96 0.96 0.97 1.00 1.05 1.08 1.09 1.14 1.15 1.18 1.22 1.25 1.25 1.26 1.13 0.92 0.82 0.77 0.73 0.72 0.70 0.67 0.66 0.63 0.73 0.73 0.70 0.69 0.67 0.68 0.69 0.70 0.72 0.77
0.76 0.79 0.80 0.82 0.84 0.81 0.82 0.83 0.84 0.85 0.86 0.86 0.87 0.90 0.92 0.97 1.03 1.04 1.08 1.13 1.15 1.15 1.15 1.07 0.89 0.74 0.67 0.66 0.69 0.68 0.62 0.59 0.55 0.58 0.60 0.57 0.56 0.56 0.57 0.59 0.62 0.64 0.62
0.59 0.64 0.69 0.72 0.72 0.74 0.78 0.80 0.82 0.82 0.80 0.79 0.79 0.81 0.84 0.88 0.93 0.99 1.04 1.05 1.06 1.09 1.09 1.08 0.99 0.83 0.70 0.64 0.66 0.66 0.62 0.55 0.50 0.46 0.54 0.54 0.52 0.50 0.47 0.46 0.45 0.46 0.48
0.43 0.46 0.53 0.60 0.66 0.67 0.71 0.75 0.78 0.80 0.81 0.81 0.83 0.87 0.92 1.01 1.03 0.99 0.96 0.94 0.95 0.99 1.02 1.02 0.94 0.81 0.70 0.64 0.63 0.58 0.57 0.55 0.54 0.48 0.49 0.47 0.45 0.45 0.44 0.45 0.44 0.41 0.43
0.36 0.39 0.44 0.48 0.55 0.62 0.78 0.76 0.72 0.73 0.81 0.85 0.86 0.86 0.89 0.99 0.97 0.96 0.91 0.86 0.88 0.94 0.96 0.91 0.80 0.68 0.55 0.48 0.48 0.54 0.60 0.66 0.65 0.48 0.47 0.48 0.45 0.46 0.42 0.40 0.45 0.43 0.41
0.37 0.40 0.43 0.47 0.52 0.66 0.82 0.79 0.82 0.75 0.78 0.83 0.85 0.83 0.79 0.75 0.77 0.70 0.75 0.80 0.81 0.80 0.76 0.70 0.66 0.54 0.47 0.44 0.53 0.64 0.65 0.65 0.55 0.42 0.49 0.57 0.51 0.48 0.40 0.40 0.46 0.42 0.42
0.52 0.56 0.61 0.64 0.68 0.77 0.83 0.75 0.72 0.67 0.70 0.72 0.70 0.68 0.64 0.59 0.57 0.57 0.60 0.66 0.59 0.55 0.55 0.51 0.48 0.45 0.45 0.48 0.57 0.67 0.71 0.74 0.65 0.57 0.57 0.63 0.54 0.47 0.40 0.39 0.46 0.43 0.44
0.80 0.78 0.75 0.71 0.68 0.68 0.68 0.63 0.59 0.54 0.55 0.54 0.52 0.51 0.50 0.48 0.54 0.62 0.57 0.53 0.48 0.47 0.51 0.53 0.55 0.54 0.58 0.62 0.64 0.70 0.79 0.87 0.79 0.61 0.52 0.51 0.46 0.43 0.43 0.43 0.46 0.51 0.48
0.72 0.70 0.69 0.66 0.60 0.53 0.49 0.44 0.42 0.39 0.38 0.36 0.34 0.34 0.40 0.42 0.51 0.58 0.51 0.48 0.45 0.39 0.40 0.45 0.47 0.46 0.44 0.48 0.59 0.58 0.66 0.88 0.80 0.59 0.38 0.41 0.45 0.52 0.65 0.47 0.41 0.45 0.50

GEFSMA_prec_meanprecacc_168.txt.gz
Total_Precipitation_Accumulation
0.42 0.36 0.33 0.35 0.36 0.35 0.31 0.27 0.24 0.23 0.22 0.20 0.18 0.17 0.18 0.19 0.16 0.14 0.13 0.12 0.12 0.13 0.18 0.25 0.31 0.35 0.38 0.40 0.40 0.41 0.41 0.39 0.39 0.39 0.38 0.37 0.34 0.32 0.29 0.29 0.29 0.30 0.32
0.58 0.51 0.45 0.40 0.39 0.39 0.39 0.36 0.33 0.32 0.28 0.26 0.22 0.20 0.19 0.20 0.22 0.20 0.18 0.16 0.13 0.12 0.13 0.20 0.29 0.38 0.44 0.49 0.51 0.50 0.46 0.41 0.40 0.41 0.39 0.38 0.39 0.40 0.40 0.35 0.33 0.34 0.34
0.66 0.64 0.60 0.55 0.50 0.48 0.47 0.46 0.45 0.45 0.39 0.34 0.29 0.27 0.25 0.25 0.26 0.26 0.25 0.23 0.19 0.16 0.15 0.18 0.26 0.37 0.45 0.53 0.61 0.63 0.60 0.52 0.47 0.42 0.40 0.39 0.38 0.39 0.42 0.44 0.42 0.40 0.38
0.75 0.72 0.67 0.56 0.51 0.57 0.57 0.52 0.48 0.47 0.41 0.34 0.29 0.28 0.27 0.27 0.28 0.30 0.33 0.32 0.29 0.24 0.20 0.18 0.21 0.28 0.39 0.51 0.64 0.78 0.84 0.75 0.62 0.54 0.50 0.46 0.42 0.39 0.40 0.42 0.45 0.44 0.42
0.86 0.84 0.77 0.71 0.65 0.58 0.57 0.58 0.52 0.46 0.42 0.39 0.35 0.30 0.26 0.24 0.24 0.25 0.26 0.28 0.31 0.30 0.27 0.25 0.24 0.25 0.32 0.45 0.60 0.79 0.95 0.94 0.83 0.71 0.63 0.59 0.54 0.49 0.45 0.44 0.44 0.44 0.45
1.04 0.95 0.88 0.86 0.87 0.79 0.67 0.60 0.56 0.51 0.45 0.47 0.48 0.43 0.37 0.32 0.29 0.27 0.26 0.26 0.26 0.27 0.27 0.23 0.23 0.23 0.26 0.32 0.45 0.61 0.77 0.92 0.98 0.92 0.81 0.72 0.67 0.64 0.62 0.61 0.58 0.55 0.53
1.26 1.18 1.03 1.01 0.98 0.91 0.81 0.74 0.71 0.66 0.60 0.59 0.60 0.52 0.44 0.42 0.39 0.35 0.34 0.34 0.32 0.31 0.30 0.27 0.25 0.23 0.22 0.24 0.29 0.39 0.51 0.69 0.86 0.96 0.98 0.95 0.87 0.81 0.78 0.78 0.77 0.72 0.69
1.31 1.28 1.22 1.14 1.09 1.06 1.04 1.00 0.96 0.89 0.82 0.82 0.83 0.79 0.63 0.48 0.38 0.34 0.35 0.36 0.36 0.36 0.34 0.31 0.28 0.27 0.24 0.22 0.22 0.25 0.33 0.46 0.65 0.84 0.95 0.99 1.00 0.99 0.99 1.01 0.99 0.95 0.89
1.45 1.34 1.31 1.31 1.23 1.15 1.10 1.09 1.08 1.05 0.98 0.94 0.94 1.00 0.86 0.60 0.41 0.32 0.29 0.30 0.34 0.36 0.37 0.39 0.40 0.38 0.33 0.30 0.27 0.25 0.25 0.29 0.43 0.65 0.87 0.98 1.02 1.06 1.13 1.21 1.29 1.29 1.19
1.61 1.53 1.45 1.41 1.36 1.29 1.17 1.15 1.14 1.08 1.04 0.99 0.95 0.89 0.82 0.67 0.62 0.47 0.32 0.30 0.32 0.33 0.36 0.40 0.44 0.47 0.48 0.46 0.44 0.41 0.34 0.30 0.36 0.51 0.74 0.98 1.13 1.22 1.28 1.32 1.37 1.42 1.40
1.68 1.61 1.52 1.49 1.41 1.34 1.29 1.28 1.25 1.21 1.13 1.07 1.01 0.95 0.93 0.80 0.68 0.65 0.49 0.34 0.35 0.36 0.38 0.42 0.46 0.48 0.50 0.50 0.47 0.48 0.49 0.44 0.46 0.55 0.72 0.96 1.16 1.35 1.49 1.54 1.55 1.56 1.55
1.75 1.66 1.55 1.47 1.40 1.35 1.33 1.33 1.36 1.32 1.26 1.19 1.14 1.08 1.07 1.01 0.86 0.82 0.73 0.51 0.44 0.39 0.38 0.40 0.42 0.45 0.48 0.50 0.49 0.54 0.52 0.53 0.57 0.67 0.83 1.00 1.13 1.27 1.46 1.63 1.69 1.68 1.66
1.54 1.52 1.52 1.47 1.42 1.34 1.32 1.33 1.36 1.33 1.29 1.23 1.16 1.12 1.11 1.07 0.99 0.97 0.93 0.73 0.59 0.47 0.44 0.44 0.43 0.44 0.46 0.48 0.51 0.60 0.58 0.61 0.65 0.73 0.87 1.02 1.08 1.13 1.26 1.46 1.68 1.82 1.91
1.45 1.47 1.46 1.46 1.47 1.45 1.40 1.37 1.37 1.34 1.32 1.24 1.13 1.06 1.02 0.98 0.98 1.00 1.00 0.99 0.91 0.70 0.57 0.50 0.45 0.45 0.48 0.53 0.62 0.72 0.68 0.80 0.82 0.86 0.96 1.06 1.09 1.07 1.10 1.19 1.36 1.54 1.68
1.33 1.34 1.33 1.34 1.36 1.38 1.36 1.36 1.33 1.29 1.29 1.26 1.20 1.12 1.00 0.89 0.88 0.90 0.94 1.01 1.12 1.02 0.77 0.58 0.56 0.58 0.63 0.68 0.78 0.78 0.74 0.90 0.96 0.97 1.02 1.06 1.08 1.04 1.02 1.03 1.09 1.17 1.26
1.15 1.19 1.18 1.18 1.20 1.21 1.24 1.26 1.23 1.18 1.17 1.13 1.13 1.13 1.08 0.98 0.95 0.95 1.00 1.06 1.15 1.21 1.05 0.73 0.63 0.66 0.75 0.83 0.94 0.88 0.83 0.96 0.94 0.94 0.97 0.96 0.92 0.90 0.88 0.89 0.92 1.00 1.05
0.99 1.01 1.02 1.03 1.02 1.04 1.08 1.12 1.08 1.06 1.08 1.07 1.06 1.08 1.10 1.08 1.08 1.07 1.10 1.17 1.23 1.31 1.31 1.01 0.82 0.78 0.82 0.83 0.85 0.81 0.78 0.80 0.79 0.88 0.85 0.81 0.78 0.76 0.76 0.77 0.79 0.83 0.87
0.87 0.89 0.91 0.91 0.88 0.86 0.90 0.94 0.97 0.96 0.96 0.97 1.00 1.05 1.08 1.10 1.14 1.15 1.19 1.22 1.25 1.25 1.26 1.13 0.92 0.82 0.77 0.73 0.72 0.70 0.67 0.66 0.63 0.73 0.73 0.70 0.69 0.67 0.68 0.69 0.70 0.72 0.77
0.77 0.79 0.80 0.83 0.84 0.81 0.82 0.84 0.84 0.85 0.86 0.86 0.87 0.91 0.92 0.97 1.03 1.05 1.08 1.13 1.15 1.15 1.15 1.07 0.89 0.74 0.68 0.66 0.69 0.68 0.62 0.59 0.55 0.58 0.60 0.57 0.56 0.56 0.57 0.60 0.62 0.64 0.63
0.59 0.64 0.69 0.72 0.72 0.74 0.78 0.81 0.83 0.82 0.80 0.80 0.79 0.81 0.84 0.89 0.94 0.99 1.04 1.05 1.06 1.09 1.09 1.08 0.99 0.83 0.70 0.64 0.66 0.66 0.63 0.55 0.50 0.46 0.54 0.54 0.52 0.50 0.47 0.46 0.45 0.46 0.48
0.43 0.46 0.53 0.60 0.66 0.67 0.71 0.76 0.78 0.80 0.81 0.81 0.83 0.87 0.92 1.01 1.03 1.00 0.97 0.94 0.95 0.99 1.02 1.02 0.94 0.81 0.70 0.64 0.63 0.58 0.57 0.56 0.54 0.48 0.49 0.48 0.45 0.45 0.44 0.45 0.44 0.41 0.43
0.36 0.39 0.44 0.49 0.55 0.62 0.78 0.77 0.72 0.73 0.81 0.85 0.87 0.86 0.89 0.99 0.97 0.96 0.91 0.86 0.88 0.94 0.96 0.91 0.81 0.68 0.55 0.48 0.48 0.55 0.60 0.66 0.65 0.48 0.47 0.48 0.45 0.46 0.42 0.40 0.45 0.43 0.41
0.38 0.41 0.43 0.47 0.53 0.66 0.83 0.79 0.83 0.75 0.78 0.83 0.85 0.83 0.79 0.75 0.77 0.70 0.75 0.80 0.81 0.81 0.77 0.71 0.67 0.55 0.48 0.44 0.53 0.64 0.66 0.65 0.55 0.42 0.49 0.57 0.51 0.48 0.40 0.40 0.46 0.42 0.42
0.52 0.56 0.62 0.65 0.68 0.77 0.83 0.75 0.72 0.67 0.70 0.72 0.70 0.68 0.64 0.59 0.57 0.57 0.60 0.66 0.59 0.55 0.55 0.51 0.49 0.46 0.46 0.48 0.57 0.68 0.72 0.74 0.66 0.57 0.58 0.64 0.54 0.47 0.40 0.39 0.46 0.44 0.44
0.80 0.78 0.75 0.71 0.68 0.69 0.69 0.63 0.59 0.54 0.55 0.54 0.52 0.51 0.50 0.48 0.54 0.62 0.57 0.53 0.48 0.47 0.51 0.54 0.55 0.55 0.59 0.63 0.65 0.72 0.80 0.89 0.80 0.61 0.52 0.52 0.47 0.43 0.43 0.43 0.46 0.51 0.49
0.72 0.71 0.69 0.66 0.60 0.54 0.49 0.44 0.42 0.39 0.38 0.36 0.34 0.35 0.41 0.42 0.52 0.59 0.52 0.49 0.46 0.40 0.40 0.45 0.47 0.46 0.45 0.49 0.60 0.60 0.68 0.90 0.82 0.60 0.38 0.42 0.46 0.53 0.66 0.47 0.41 0.45 0.50

GEFSMA_prec_meanprecacc_174.txt.gz
Total_Precipitation_Accumulation
0.45 0.37 0.34 0.36 0.37 0.36 0.32 0.27 0.25 0.23 0.22 0.20 0.18 0.17 0.18 0.19 0.16 0.14 0.13 0.13 0.12 0.14 0.19 0.27 0.34 0.38 0.41 0.43 0.42 0.44 0.43 0.42 0.41 0.41 0.40 0.38 0.36 0.33 0.31 0.30 0.31 0.32 0.36
0.62 0.53 0.45 0.41 0.41 0.41 0.40 0.37 0.33 0.32 0.28 0.26 0.22 0.20 0.19 0.20 0.22 0.20 0.18 0.17 0.14 0.13 0.14 0.21 0.31 0.40 0.47 0.53 0.54 0.53 0.48 0.43 0.42 0.43 0.41 0.40 0.40 0.41 0.41 0.37 0.34 0.35 0.36
0.71 0.65 0.60 0.56 0.51 0.50 0.49 0.47 0.46 0.45 0.39 0.34 0.29 0.27 0.25 0.25 0.26 0.26 0.25 0.23 0.19 0.16 0.15 0.19 0.27 0.38 0.46 0.55 0.64 0.66 0.62 0.55 0.49 0.44 0.42 0.42 0.40 0.41 0.44 0.45 0.44 0.41 0.39
0.85 0.77 0.68 0.57 0.51 0.58 0.58 0.54 0.50 0.47 0.41 0.34 0.29 0.28 0.27 0.27 0.28 0.30 0.33 0.32 0.29 0.24 0.20 0.18 0.21 0.29 0.39 0.52 0.66 0.80 0.86 0.76 0.64 0.56 0.51 0.47 0.43 0.41 0.41 0.43 0.46 0.45 0.43
0.98 0.93 0.79 0.71 0.66 0.58 0.58 0.60 0.54 0.47 0.43 0.39 0.35 0.30 0.26 0.24 0.25 0.25 0.26 0.29 0.31 0.31 0.27 0.25 0.24 0.25 0.32 0.45 0.60 0.81 0.96 0.95 0.84 0.72 0.64 0.59 0.55 0.50 0.46 0.45 0.44 0.44 0.46
1.15 1.10 0.97 0.88 0.88 0.80 0.68 0.62 0.58 0.53 0.46 0.47 0.48 0.43 0.37 0.33 0.29 0.27 0.26 0.26 0.26 0.27 0.27 0.23 0.23 0.23 0.26 0.32 0.45 0.61 0.78 0.93 0.99 0.93 0.82 0.73 0.68 0.65 0.63 0.62 0.59 0.56 0.54
1.35 1.31 1.22 1.11 1.02 0.92 0.82 0.76 0.73 0.68 0.62 0.60 0.61 0.52 0.45 0.42 0.39 0.35 0.34 0.34 0.32 0.31 0.30 0.27 0.25 0.23 0.22 0.24 0.29 0.39 0.52 0.69 0.86 0.96 0.99 0.96 0.88 0.82 0.79 0.79 0.78 0.73 0.70
1.41 1.35 1.34 1.31 1.21 1.12 1.06 1.01 0.98 0.92 0.85 0.84 0.83 0.79 0.63 0.48 0.38 0.34 0.35 0.36 0.36 0.36 0.34 0.31 0.28 0.27 0.24 0.22 0.22 0.25 0.33 0.46 0.65 0.84 0.96 1.00 1.01 1.00 1.01 1.02 1.01 0.97 0.90
1.57 1.44 1.41 1.44 1.36 1.26 1.15 1.11 1.11 1.08 1.01 0.97 0.96 1.00 0.86 0.60 0.41 0.32 0.29 0.30 0.34 0.36 0.37 0.39 0.40 0.38 0.33 0.30 0.27 0.25 0.25 0.29 0.43 0.65 0.87 0.99 1.03 1.07 1.13 1.22 1.30 1.30 1.20
1.71 1.62 1.54 1.52 1.48 1.40 1.25 1.20 1.17 1.12 1.09 1.03 0.98 0.90 0.82 0.67 0.62 0.47 0.32 0.30 0.33 0.34 0.37 0.40 0.44 0.47 0.48 0.46 0.44 0.41 0.34 0.30 0.36 0.51 0.74 0.98 1.14 1.23 1.28 1.32 1.38 1.43 1.41
1.76 1.67 1.58 1.56 1.48 1.42 1.37 1.37 1.30 1.26 1.18 1.11 1.05 0.98 0.94 0.81 0.68 0.65 0.49 0.35 0.35 0.36 0.39 0.42 0.46 0.48 0.50 0.50 0.47 0.48 0.49 0.44 0.46 0.55 0.72 0.96 1.16 1.36 1.50 1.55 1.56 1.57 1.56
1.83 1.72 1.59 1.51 1.45 1.40 1.39 1.40 1.43 1.37 1.30 1.24 1.18 1.12 1.09 1.02 0.87 0.82 0.73 0.51 0.44 0.39 0.39 0.41 0.43 0.45 0.48 0.50 0.49 0.54 0.52 0.53 0.57 0.67 0.83 1.00 1.13 1.28 1.47 1.63 1.70 1.68 1.66
1.60 1.58 1.57 1.51 1.44 1.37 1.35 1.36 1.39 1.36 1.31 1.27 1.20 1.16 1.14 1.09 0.99 0.97 0.93 0.73 0.59 0.47 0.44 0.44 0.43 0.44 0.46 0.48 0.51 0.60 0.58 0.61 0.65 0.73 0.88 1.02 1.08 1.13 1.26 1.46 1.68 1.82 1.91
1.52 1.52 1.50 1.50 1.50 1.47 1.41 1.38 1.38 1.36 1.34 1.26 1.16 1.10 1.06 1.00 0.99 1.00 1.00 0.99 0.91 0.70 0.57 0.50 0.45 0.45 0.48 0.53 0.62 0.72 0.68 0.80 0.82 0.86 0.96 1.06 1.09 1.08 1.10 1.19 1.36 1.55 1.68
1.38 1.39 1.38 1.38 1.39 1.40 1.38 1.37 1.34 1.31 1.30 1.27 1.21 1.14 1.04 0.92 0.90 0.91 0.94 1.01 1.12 1.02 0.77 0.58 0.56 0.58 0.63 0.68 0.78 0.78 0.74 0.90 0.96 0.97 1.02 1.06 1.08 1.04 1.02 1.04 1.09 1.17 1.26
1.18 1.22 1.20 1.20 1.21 1.22 1.24 1.27 1.23 1.19 1.18 1.14 1.14 1.14 1.10 1.02 0.97 0.97 1.00 1.06 1.15 1.21 1.05 0.73 0.63 0.66 0.75 0.83 0.94 0.88 0.83 0.96 0.94 0.94 0.97 0.96 0.93 0.90 0.89 0.89 0.93 1.00 1.06
1.01 1.02 1.03 1.04 1.03 1.05 1.09 1.13 1.09 1.07 1.09 1.08 1.07 1.10 1.11 1.10 1.11 1.09 1.12 1.17 1.23 1.31 1.31 1.01 0.82 0.78 0.82 0.83 0.85 0.81 0.78 0.80 0.79 0.88 0.85 0.82 0.78 0.76 0.76 0.77 0.80 0.83 0.87
0.88 0.90 0.91 0.92 0.89 0.87 0.91 0.95 0.98 0.97 0.97 0.98 1.01 1.07 1.09 1.10 1.16 1.18 1.20 1.23 1.25 1.25 1.26 1.13 0.92 0.82 0.77 0.73 0.72 0.70 0.67 0.66 0.63 0.74 0.73 0.70 0.69 0.67 0.68 0.70 0.70 0.72 0.77
0.77 0.80 0.81 0.83 0.84 0.82 0.83 0.84 0.85 0.86 0.87 0.88 0.88 0.92 0.93 0.98 1.04 1.06 1.11 1.15 1.16 1.15 1.15 1.07 0.89 0.74 0.68 0.66 0.69 0.68 0.62 0.59 0.55 0.58 0.60 0.57 0.56 0.56 0.58 0.60 0.63 0.65 0.63
0.60 0.64 0.69 0.72 0.73 0.75 0.78 0.81 0.83 0.83 0.81 0.80 0.80 0.82 0.85 0.90 0.94 0.99 1.05 1.07 1.09 1.10 1.10 1.09 0.99 0.83 0.70 0.64 0.66 0.66 0.63 0.55 0.50 0.46 0.54 0.54 0.53 0.50 0.48 0.47 0.45 0.46 0.49
0.44 0.47 0.53 0.61 0.66 0.68 0.72 0.76 0.79 0.81 0.82 0.81 0.83 0.88 0.92 1.02 1.03 1.00 0.97 0.95 0.97 1.02 1.04 1.03 0.94 0.82 0.70 0.64 0.63 0.59 0.58 0.56 0.54 0.48 0.49 0.48 0.46 0.45 0.44 0.45 0.44 0.41 0.43
0.37 0.40 0.45 0.49 0.56 0.62 0.79 0.78 0.73 0.74 0.81 0.85 0.87 0.86 0.90 0.99 0.97 0.96 0.91 0.87 0.88 0.96 0.99 0.94 0.83 0.69 0.55 0.48 0.49 0.55 0.61 0.67 0.66 0.48 0.48 0.48 0.45 0.46 0.42 0.40 0.45 0.43 0.42
0.38 0.42 0.44 0.48 0.53 0.67 0.83 0.80 0.83 0.76 0.78 0.83 0.85 0.83 0.79 0.75 0.78 0.70 0.75 0.80 0.81 0.81 0.78 0.73 0.69 0.56 0.48 0.45 0.54 0.65 0.67 0.66 0.56 0.42 0.49 0.58 0.51 0.48 0.40 0.40 0.47 0.43 0.42
0.53 0.58 0.63 0.65 0.69 0.78 0.83 0.75 0.72 0.67 0.70 0.72 0.70 0.68 0.64 0.59 0.57 0.57 0.60 0.66 0.59 0.55 0.55 0.52 0.50 0.47 0.46 0.49 0.59 0.70 0.74 0.76 0.66 0.58 0.58 0.64 0.54 0.47 0.40 0.39 0.46 0.44 0.44
0.81 0.79 0.76 0.72 0.68 0.69 0.69 0.63 0.59 0.54 0.55 0.55 0.52 0.51 0.50 0.48 0.54 0.62 0.58 0.53 0.49 0.47 0.51 0.54 0.56 0.56 0.61 0.65 0.67 0.74 0.82 0.91 0.82 0.62 0.53 0.52 0.47 0.43 0.43 0.43 0.46 0.51 0.49
0.73 0.72 0.70 0.67 0.60 0.54 0.49 0.44 0.42 0.39 0.38 0.36 0.35 0.35 0.41 0.42 0.52 0.59 0.52 0.49 0.47 0.40 0.41 0.45 0.48 0.47 0.46 0.50 0.61 0.61 0.70 0.93 0.84 0.62 0.38 0.43 0.46 0.54 0.67 0.48 0.41 0.45 0.50

GEFSMA_prec_meanprecacc_180.txt.gz
Total_Precipitation_Accumulation
0.50 0.43 0.37 0.38 0.39 0.37 0.33 0.28 0.25 0.23 0.22 0.20 0.18 0.17 0.18 0.19 0.16 0.14 0.13 0.13 0.13 0.14 0.20 0.28 0.36 0.42 0.45 0.46 0.45 0.46 0.46 0.44 0.42 0.43 0.42 0.40 0.37 0.34 0.32 0.32 0.33 0.35 0.39
0.67 0.61 0.53 0.46 0.43 0.42 0.41 0.38 0.34 0.33 0.29 0.26 0.22 0.20 0.19 0.21 0.22 0.20 0.18 0.17 0.14 0.13 0.15 0.23 0.33 0.43 0.51 0.56 0.57 0.54 0.50 0.45 0.43 0.45 0.42 0.42 0.43 0.43 0.43 0.38 0.36 0.36 0.37
0.76 0.72 0.67 0.63 0.56 0.52 0.50 0.48 0.47 0.46 0.40 0.34 0.29 0.27 0.26 0.25 0.26 0.26 0.25 0.23 0.19 0.17 0.16 0.20 0.27 0.39 0.48 0.56 0.65 0.67 0.63 0.55 0.50 0.45 0.44 0.43 0.41 0.42 0.45 0.46 0.44 0.42 0.40
0.92 0.83 0.73 0.61 0.56 0.63 0.61 0.55 0.51 0.49 0.42 0.35 0.30 0.28 0.27 0.27 0.28 0.30 0.33 0.32 0.29 0.25 0.20 0.19 0.21 0.29 0.39 0.52 0.66 0.80 0.87 0.77 0.64 0.56 0.51 0.48 0.44 0.41 0.42 0.44 0.47 0.46 0.44
1.12 1.01 0.86 0.77 0.70 0.62 0.61 0.62 0.56 0.49 0.45 0.40 0.35 0.30 0.26 0.24 0.25 0.25 0.26 0.29 0.32 0.31 0.28 0.25 0.24 0.25 0.32 0.45 0.61 0.82 0.97 0.95 0.84 0.72 0.64 0.60 0.55 0.50 0.46 0.46 0.45 0.45 0.46
1.31 1.21 1.04 0.95 0.94 0.86 0.72 0.64 0.60 0.55 0.48 0.48 0.50 0.44 0.38 0.33 0.29 0.27 0.26 0.26 0.26 0.27 0.27 0.24 0.23 0.23 0.26 0.33 0.46 0.62 0.78 0.93 0.99 0.93 0.82 0.74 0.68 0.65 0.64 0.63 0.59 0.57 0.55
1.52 1.49 1.33 1.18 1.09 1.00 0.88 0.80 0.75 0.70 0.64 0.62 0.63 0.54 0.45 0.43 0.39 0.35 0.34 0.34 0.32 0.31 0.30 0.27 0.25 0.23 0.22 0.24 0.29 0.39 0.52 0.70 0.87 0.97 1.00 0.96 0.89 0.82 0.79 0.80 0.78 0.74 0.71
1.60 1.54 1.50 1.41 1.28 1.20 1.15 1.08 1.02 0.95 0.88 0.87 0.86 0.82 0.65 0.49 0.39 0.34 0.35 0.37 0.36 0.36 0.34 0.31 0.28 0.27 0.24 0.22 0.22 0.25 0.33 0.46 0.65 0.85 0.96 1.00 1.01 1.00 1.01 1.03 1.01 0.97 0.91
1.74 1.64 1.60 1.59 1.45 1.32 1.23 1.20 1.16 1.11 1.04 1.00 1.00 1.04 0.88 0.61 0.41 0.33 0.30 0.31 0.34 0.36 0.37 0.39 0.40 0.38 0.33 0.30 0.27 0.26 0.26 0.29 0.43 0.66 0.87 0.99 1.03 1.07 1.14 1.23 1.31 1.31 1.21
1.84 1.78 1.71 1.69 1.62 1.48 1.31 1.26 1.23 1.15 1.10 1.04 1.01 0.94 0.85 0.69 0.62 0.47 0.33 0.30 0.33 0.34 0.37 0.40 0.44 0.47 0.48 0.47 0.44 0.41 0.35 0.30 0.37 0.51 0.75 0.98 1.14 1.23 1.29 1.33 1.39 1.44 1.42
1.86 1.78 1.71 1.69 1.62 1.52 1.44 1.42 1.36 1.31 1.22 1.14 1.07 1.01 0.98 0.83 0.69 0.66 0.50 0.35 0.36 0.36 0.39 0.43 0.46 0.48 0.50 0.50 0.47 0.48 0.49 0.44 0.46 0.55 0.72 0.96 1.17 1.36 1.50 1.56 1.57 1.59 1.57
1.90 1.80 1.67 1.60 1.55 1.52 1.47 1.45 1.47 1.42 1.36 1.28 1.21 1.14 1.13 1.06 0.89 0.84 0.74 0.52 0.44 0.39 0.39 0.41 0.43 0.45 0.48 0.50 0.49 0.54 0.52 0.53 0.57 0.67 0.83 1.00 1.13 1.28 1.48 1.64 1.71 1.69 1.67
1.64 1.63 1.63 1.56 1.50 1.44 1.42 1.41 1.43 1.41 1.36 1.31 1.24 1.19 1.18 1.13 1.03 1.00 0.95 0.75 0.60 0.48 0.45 0.45 0.43 0.44 0.46 0.48 0.51 0.60 0.58 0.61 0.65 0.73 0.88 1.02 1.08 1.13 1.26 1.47 1.69 1.83 1.92
1.56 1.56 1.54 1.54 1.54 1.51 1.45 1.43 1.42 1.39 1.37 1.29 1.19 1.14 1.10 1.05 1.04 1.05 1.04 1.02 0.93 0.71 0.58 0.50 0.45 0.45 0.48 0.53 0.62 0.72 0.68 0.80 0.82 0.86 0.96 1.06 1.09 1.08 1.10 1.19 1.36 1.55 1.69
1.42 1.44 1.43 1.44 1.45 1.46 1.42 1.41 1.38 1.34 1.33 1.29 1.23 1.16 1.06 0.95 0.94 0.96 0.98 1.04 1.14 1.03 0.78 0.59 0.56 0.59 0.63 0.68 0.78 0.78 0.74 0.90 0.96 0.97 1.02 1.06 1.08 1.04 1.02 1.04 1.09 1.18 1.26
1.21 1.25 1.24 1.25 1.28 1.29 1.30 1.31 1.26 1.22 1.20 1.16 1.15 1.15 1.11 1.03 1.00 1.01 1.04 1.09 1.16 1.22 1.05 0.73 0.63 0.66 0.75 0.83 0.94 0.88 0.83 0.96 0.94 0.94 0.97 0.96 0.93 0.90 0.89 0.90 0.93 1.00 1.06
1.02 1.03 1.04 1.06 1.05 1.09 1.13 1.16 1.12 1.09 1.11 1.10 1.08 1.11 1.12 1.11 1.13 1.11 1.16 1.21 1.26 1.32 1.31 1.01 0.82 0.78 0.82 0.83 0.85 0.81 0.78 0.80 0.79 0.88 0.85 0.82 0.78 0.76 0.76 0.77 0.80 0.83 0.88
0.89 0.91 0.92 0.93 0.90 0.88 0.93 0.97 1.00 0.98 0.98 0.99 1.02 1.07 1.10 1.11 1.17 1.19 1.23 1.27 1.29 1.27 1.27 1.14 0.92 0.82 0.77 0.73 0.72 0.70 0.67 0.66 0.63 0.74 0.73 0.70 0.69 0.67 0.68 0.70 0.71 0.73 0.78
0.77 0.80 0.81 0.83 0.84 0.82 0.83 0.85 0.86 0.87 0.88 0.88 0.89 0.92 0.94 0.99 1.05 1.07 1.12 1.18 1.19 1.19 1.17 1.08 0.89 0.74 0.68 0.66 0.70 0.68 0.62 0.59 0.55 0.58 0.60 0.57 0.56 0.56 0.58 0.60 0.63 0.65 0.64
0.60 0.64 0.69 0.72 0.73 0.75 0.78 0.82 0.84 0.84 0.82 0.81 0.81 0.83 0.86 0.91 0.95 1.01 1.06 1.09 1.12 1.13 1.14 1.12 1.01 0.84 0.70 0.64 0.66 0.67 0.63 0.55 0.50 0.46 0.54 0.54 0.53 0.50 0.48 0.47 0.46 0.47 0.49
0.44 0.47 0.53 0.61 0.66 0.68 0.72 0.77 0.79 0.82 0.82 0.82 0.84 0.89 0.93 1.03 1.04 1.01 0.98 0.96 0.99 1.05 1.07 1.07 0.98 0.84 0.71 0.64 0.64 0.59 0.58 0.56 0.54 0.48 0.49 0.48 0.46 0.45 0.44 0.45 0.44 0.42 0.43
0.37 0.40 0.45 0.49 0.56 0.63 0.79 0.78 0.74 0.75 0.82 0.86 0.87 0.87 0.91 1.00 0.98 0.97 0.92 0.87 0.89 0.97 1.01 0.97 0.86 0.72 0.57 0.49 0.49 0.55 0.61 0.68 0.66 0.48 0.48 0.48 0.45 0.46 0.42 0.40 0.45 0.43 0.42
0.38 0.42 0.44 0.48 0.54 0.67 0.84 0.80 0.84 0.77 0.79 0.84 0.86 0.83 0.79 0.76 0.78 0.70 0.75 0.81 0.82 0.82 0.79 0.75 0.72 0.59 0.51 0.47 0.55 0.66 0.68 0.67 0.57 0.42 0.50 0.58 0.51 0.48 0.40 0.40 0.47 0.43 0.42
0.53 0.58 0.63 0.66 0.69 0.78 0.84 0.76 0.73 0.68 0.71 0.73 0.71 0.69 0.64 0.59 0.57 0.58 0.61 0.67 0.59 0.55 0.55 0.52 0.51 0.48 0.49 0.52 0.61 0.72 0.76 0.78 0.68 0.58 0.59 0.65 0.54 0.47 0.40 0.39 0.46 0.44 0.44
0.81 0.79 0.77 0.73 0.69 0.69 0.69 0.64 0.60 0.55 0.56 0.55 0.52 0.51 0.51 0.48 0.55 0.63 0.58 0.54 0.49 0.47 0.52 0.55 0.57 0.57 0.62 0.67 0.69 0.76 0.85 0.94 0.84 0.63 0.54 0.53 0.48 0.44 0.43 0.44 0.46 0.51 0.49
0.74 0.73 0.71 0.67 0.61 0.54 0.49 0.44 0.42 0.39 0.39 0.36 0.35 0.35 0.41 0.42 0.52 0.59 0.53 0.50 0.47 0.40 0.41 0.46 0.48 0.49 0.48 0.52 0.63 0.63 0.72 0.96 0.87 0.64 0.39 0.44 0.47 0.55 0.68 0.48 0.41 0.45 0.51